[[{"header":{"parameterUnit":"m.s-1","parameterCategory":1,"la1":30.2991,"la2":30.254,"lo1":-89.0895,"lo2":-89.0444,"dy":0.0017,"dx":0.0017,"nx":28,"ny":28,"refTime":"2025-06-07T09:00:00:Z","depth":0,"parameterNumber":2,"parameterNumberName":"U-component_of_WINDS"},"data":[0,0,0,0,0,0,0,0,0,0,0,0,0,0,0,0,0,0,0,0,0,0,0,0,0,0,0,0,0,0,0,0,0,0,0,0,0,0,0,0,0,0,0,0,0,0,0,0,0,0,0,0,0,0,0,0,0,0,2.9823,2.9825,0,2.9968,2.9969,2.9971,2.9951,2.9949,2.9946,2.9944,3.0093,3.0099,3.0105,0,0,0,0,0,0,0,0,0,0,0,0,0,2.9533,2.9538,2.9823,2.9825,2.9827,2.9967,2.9969,2.9971,2.9952,2.9949,2.9946,2.9943,3.0091,3.0098,3.0105,0,0,0,0,0,0,0,0,0,0,0,0,0,2.9666,2.954,2.9823,2.9834,2.9836,2.9967,2.9969,2.9972,2.9952,2.9949,2.9945,2.9942,3.0088,3.0097,3.0107,3.0235,0,0,3.0135,3.0139,0,0,0,0,0,0,0,0,2.9659,2.9677,2.9831,2.9834,2.9836,2.9938,2.9921,3.006,2.9953,2.9908,2.9944,2.994,3.0044,3.0057,3.0092,3.0242,3.0249,3.0136,3.0141,3.0145,3.0148,0,0,0,0,0,0,0,2.9649,2.9671,2.988,2.9833,2.9837,2.9832,2.9847,2.9948,2.9995,2.9912,2.9911,2.9928,3.0045,3.0083,3.0095,3.0251,3.0135,3.0144,3.0149,3.0153,3.0516,3.052,0,0,0,0,0,0,2.9637,2.9663,2.9876,2.9885,2.9737,2.984,2.9857,2.9909,2.9993,3.0003,2.9931,2.9927,3.0069,3.0084,3.01,3.0258,3.0145,3.0154,3.0159,3.0512,3.0517,3.0521,0,0,0,0,0,0,2.9631,2.9656,2.987,2.9774,2.9801,2.9849,2.9907,2.9914,2.9951,3.0008,3.0016,2.9961,3.0067,3.0087,3.0202,3.0262,3.0158,3.0166,3.0507,3.0513,3.0519,3.0573,0,0,0,0,0,0,2.9623,2.9654,2.9703,2.9775,2.9806,2.9969,2.9911,2.9919,2.9967,2.9963,3.0038,3.0047,3.0065,3.0188,3.0211,3.0273,3.0174,3.0502,3.051,3.0517,3.0566,3.058,3.0592,0,0,0,0,0,2.9612,2.9712,2.9706,2.9731,2.9868,2.9973,2.999,3.0009,2.9972,3.0022,3.0059,3.0045,3.0252,3.02,3.0226,3.0292,3.0498,3.0508,3.0517,3.056,3.0577,3.0592,0,0,0,0,0,0,2.9646,2.9722,2.9715,2.9841,2.9901,2.9969,3.0032,3.0026,3.0097,3.009,3.0111,3.0128,3.0245,3.028,3.0221,3.0422,3.037,3.0385,3.0394,3.0411,3.0424,3.0413,3.0181,0,0,0,0,0,2.9668,2.9747,2.9809,2.9914,2.9944,2.9983,3.003,3.0039,3.0101,3.0126,3.0171,3.0233,3.0312,3.0363,3.0439,3.0571,3.0587,3.0629,3.0642,3.0652,3.0665,3.0738,3.0758,3.0551,3.0551,3.0551,0,0,2.9715,2.9766,2.9814,2.9922,2.9969,3.005,3.0005,3.0092,3.0153,3.014,3.0251,3.0286,3.0356,3.0481,3.0537,3.0513,3.0726,3.0664,3.0672,3.0679,3.075,3.0769,3.0786,3.0558,3.0557,3.0556,0,0,2.9841,2.9887,2.9981,3.0029,3.0101,3.0127,3.0149,3.0219,3.0242,3.0354,3.0346,3.0419,3.0555,3.0605,3.0649,3.0796,3.0786,3.082,3.0889,3.096,3.0976,3.0991,3.1044,3.1063,3.0832,3.0833,3.0833,0,2.989,3.0011,3.0029,3.0119,3.0167,3.0159,3.0254,3.03,3.0393,3.0427,3.0399,3.057,3.0616,3.0753,3.0789,3.0824,3.0851,3.0811,3.0972,3.0987,3.1001,3.1052,3.1072,3.0836,3.0836,3.0835,3.0835,0,3.0068,3.0153,3.022,3.031,3.0366,3.0458,3.049,3.0545,3.055,3.0579,3.0694,3.075,3.0837,3.087,3.0876,3.1008,3.0991,3.0967,3.0916,3.1024,3.1072,3.1092,3.0842,3.084,3.0839,3.0838,0,0,3.0219,3.0319,3.0343,3.0385,3.0464,3.0531,3.0623,3.0708,3.0755,3.082,3.0898,3.1013,3.0993,3.1042,3.1053,3.1116,3.123,3.1085,3.1087,3.111,3.1381,3.1398,3.142,3.1224,3.1228,3.1231,3.1375,0,3.0353,3.0515,3.0535,3.068,3.0759,3.0753,3.0833,3.0891,3.0921,3.0993,3.1026,3.1108,3.1074,3.1104,3.1165,3.1203,3.1285,3.1193,3.1298,3.1301,3.128,3.1445,3.1464,3.1597,3.1394,3.1397,3.1399,0,3.0531,3.0602,3.0754,3.0824,3.0858,3.093,3.1011,3.1079,3.1145,3.1163,3.1219,3.1222,3.1318,3.1263,3.1396,3.1334,3.1378,3.1403,3.1409,3.1419,3.1357,3.1461,3.164,3.166,3.1429,3.1427,3.1425,0,3.0627,3.076,3.0869,3.0904,3.0988,3.1039,3.1076,3.1139,3.119,3.126,3.1294,3.1375,3.1419,3.1482,3.1508,3.1466,3.164,3.1587,3.1658,3.1658,3.1695,3.1692,3.1884,3.1723,3.1723,3.1722,3.1722,0,3.0775,3.0869,3.0913,3.098,3.1085,3.1107,3.1211,3.1246,3.1302,3.1376,3.1377,3.1446,3.1476,3.1551,3.1572,3.1679,3.1699,3.1717,3.1721,3.1717,3.1715,3.1746,3.1738,3.1728,3.1727,3.1726,3.1725,0,3.0899,3.0932,3.1051,3.1121,3.1141,3.1215,3.1276,3.1341,3.1371,3.1465,3.1488,3.1535,3.1623,3.1655,3.1762,3.1776,3.1901,3.1898,3.1879,3.188,3.1949,3.1942,3.2168,3.2199,3.2017,3.2019,3.202,0,3.0991,3.1064,3.1142,3.1192,3.1231,3.1311,3.1363,3.1388,3.1442,3.1524,3.158,3.1667,3.1739,3.188,3.1924,3.2006,3.2005,3.2079,3.2018,3.2011,3.2007,3.2003,3.201,3.209,3.2092,3.2093,3.2095,0,3.1152,3.1165,3.124,3.1322,3.1384,3.1449,3.1512,3.1553,3.1587,3.1648,3.1739,3.1794,3.1904,3.1992,3.2076,3.2115,3.2112,3.2114,3.2134,3.2131,3.2117,3.2126,3.191,3.2108,3.2107,3.2106,3.2105,3.2105,3.1264,3.1328,3.1394,3.1477,3.1528,3.1587,3.1652,3.169,3.1766,3.1857,3.1868,3.1965,3.2031,3.2144,3.2187,3.2264,3.2244,3.2274,3.2282,3.2289,3.2294,3.2105,3.228,3.2279,3.2279,3.2279,3.2278,0,3.1425,3.1467,3.1544,3.1633,3.1699,3.1689,3.1759,3.1815,3.1901,3.1962,3.2033,3.2138,3.2223,3.2274,3.2359,3.2411,3.2412,3.2433,3.243,3.2439,3.2307,3.2281,3.2431,3.2431,3.2431,3.2431,3.2431,3.2431,3.1516,3.1625,3.1646,3.178,3.1822,3.1917,3.1958,3.2013,3.2063,3.2179,3.225,3.2283,3.2341,3.2431,3.2509,3.2522,3.2554,3.2577,3.2588,3.2464,3.2448,3.2433,3.2408,3.2583,3.2584,3.2714,3.2715,3.2716]},{"header":{"parameterUnit":"m.s-1","parameterCategory":1,"la1":30.2991,"la2":30.254,"lo1":-89.0895,"lo2":-89.0444,"dy":0.0017,"dx":0.0017,"nx":28,"ny":28,"refTime":"2025-06-07T09:00:00:Z","depth":0,"parameterNumber":3,"parameterNumberName":"V-component_of_WINDS"},"data":[0,0,0,0,0,0,0,0,0,0,0,0,0,0,0,0,0,0,0,0,0,0,0,0,0,0,0,0,0,0,0,0,0,0,0,0,0,0,0,0,0,0,0,0,0,0,0,0,0,0,0,0,0,0,0,0,0,0,4.7476,4.7479,0,4.7735,4.7738,4.7741,4.7752,4.7749,4.7746,4.7743,4.8008,4.8017,4.8027,0,0,0,0,0,0,0,0,0,0,0,0,0,4.6991,4.7,4.7476,4.7479,4.7482,4.7735,4.7738,4.7742,4.7752,4.7748,4.7745,4.7741,4.8004,4.8016,4.8028,0,0,0,0,0,0,0,0,0,0,0,0,0,4.7221,4.7003,4.7475,4.7518,4.7524,4.7734,4.7738,4.7743,4.7753,4.7748,4.7744,4.7739,4.8001,4.8015,4.803,4.8214,0,0,4.8075,4.8082,0,0,0,0,0,0,0,0,4.7208,4.7239,4.7509,4.7515,4.7523,4.7706,4.7664,4.7901,4.7754,4.7666,4.7743,4.7737,4.7911,4.7933,4.7992,4.8226,4.8238,4.8076,4.8085,4.8092,4.8096,0,0,0,0,0,0,0,4.7192,4.7228,4.7578,4.7512,4.7521,4.7524,4.7552,4.7709,4.7811,4.7674,4.7675,4.7705,4.7914,4.7977,4.7998,4.8242,4.8076,4.8089,4.8098,4.8104,4.8641,4.8646,0,0,0,0,0,0,4.7167,4.7214,4.757,4.7586,4.7351,4.7537,4.7568,4.7652,4.781,4.7829,4.7709,4.7705,4.7954,4.7981,4.8007,4.8235,4.8092,4.8106,4.8114,4.8636,4.8642,4.8648,0,0,0,0,0,0,4.7157,4.7199,4.756,4.7401,4.7447,4.755,4.7645,4.766,4.7723,4.7837,4.7855,4.7755,4.7952,4.7986,4.8163,4.8244,4.8112,4.8126,4.863,4.8638,4.8645,4.869,0,0,0,0,0,0,4.7143,4.7195,4.7266,4.7402,4.7455,4.7711,4.765,4.7668,4.7749,4.7746,4.7884,4.7903,4.7951,4.814,4.8178,4.8262,4.8138,4.8623,4.8633,4.8643,4.8682,4.8699,4.8713,0,0,0,0,0,4.7126,4.7268,4.727,4.7313,4.7546,4.7716,4.7746,4.7798,4.7755,4.7828,4.7901,4.7899,4.8229,4.8158,4.82,4.8291,4.8618,4.863,4.8642,4.8675,4.8695,4.8712,0,0,0,0,0,0,4.7139,4.7287,4.729,4.7481,4.7586,4.7717,4.781,4.7818,4.7937,4.7929,4.7988,4.802,4.8195,4.826,4.8179,4.8478,4.8418,4.8439,4.8429,4.8449,4.8465,4.8446,4.815,0,0,0,0,0,4.7164,4.729,4.7412,4.7568,4.7621,4.7706,4.7782,4.7813,4.7924,4.7968,4.8054,4.8161,4.829,4.8373,4.8497,4.869,4.8721,4.8773,4.8789,4.8801,4.8819,4.8927,4.8952,4.8688,4.8688,4.8687,0,0,4.7218,4.7314,4.7389,4.7574,4.7658,4.7787,4.7744,4.7881,4.7977,4.7989,4.8161,4.8228,4.8352,4.8538,4.8624,4.8598,4.8898,4.8816,4.8825,4.8837,4.8942,4.8967,4.8989,4.8696,4.8694,4.8693,0,0,4.7382,4.7466,4.7607,4.7693,4.7821,4.7877,4.7911,4.8042,4.8087,4.826,4.8272,4.8387,4.8606,4.8694,4.8767,4.8964,4.8967,4.9003,4.9085,4.919,4.9211,4.9229,4.9301,4.9326,4.902,4.902,4.902,0,4.7432,4.7626,4.7678,4.7816,4.7897,4.7913,4.8057,4.8137,4.83,4.8355,4.8323,4.8599,4.8683,4.8891,4.8939,4.8997,4.9038,4.8988,4.9203,4.9223,4.9241,4.931,4.9337,4.9023,4.9023,4.9023,4.9022,0,4.7683,4.7817,4.7915,4.8072,4.8164,4.8304,4.8377,4.8464,4.8486,4.8546,4.8723,4.8824,4.897,4.9021,4.9044,4.9232,4.9212,4.9191,4.9133,4.9269,4.9335,4.9362,4.9029,4.9027,4.9026,4.9025,0,0,4.7863,4.8047,4.8082,4.8154,4.8298,4.8403,4.8543,4.8686,4.876,4.8871,4.8991,4.9176,4.9157,4.9241,4.9274,4.9366,4.9517,4.9334,4.9337,4.9366,4.9732,4.9748,4.9778,4.9519,4.9524,4.9528,4.9722,0,4.8044,4.8295,4.8346,4.8563,4.8689,4.8706,4.8828,4.8929,4.8988,4.9103,4.9168,4.9299,4.9264,4.9315,4.9406,4.9479,4.9591,4.9465,4.9632,4.9637,4.9603,4.9812,4.983,5.0008,4.9748,4.9752,4.9755,0,4.8289,4.8407,4.8637,4.8764,4.8819,4.8928,4.9063,4.9173,4.9288,4.9324,4.9417,4.944,4.9587,4.9521,4.9724,4.9638,4.9708,4.9754,4.9763,4.9782,4.9706,4.9839,5.0066,5.0094,4.9796,4.9793,4.979,0,4.84,4.8616,4.8782,4.8842,4.8995,4.9071,4.9138,4.9249,4.9331,4.9449,4.9503,4.9636,4.9709,4.9811,4.987,4.9816,5.007,5.0008,5.0105,5.0104,5.0159,5.0155,5.0403,5.0202,5.0201,5.0201,5.02,0,4.8597,4.8738,4.8834,4.8936,4.9094,4.9151,4.9306,4.9372,4.947,4.9586,4.9607,4.9715,4.9785,4.9903,4.9949,5.0112,5.0144,5.0178,5.0189,5.0178,5.0174,5.0226,5.0216,5.0208,5.0206,5.0205,5.0204,0,4.8749,4.8818,4.9001,4.913,4.9166,4.9277,4.9387,4.9487,4.9546,4.9692,4.973,4.9822,4.9962,5.003,5.0203,5.0235,5.0419,5.0421,5.0381,5.0385,5.0479,5.047,5.0771,5.0814,5.0582,5.0584,5.0586,0,4.8871,4.898,4.9121,4.92,4.9269,4.9396,4.948,4.954,4.9627,4.9766,4.985,4.9991,5.0107,5.033,5.0412,5.0545,5.0552,5.0648,5.0572,5.0557,5.0556,5.0549,5.0561,5.0662,5.0665,5.0666,5.0668,0,4.9082,4.9111,4.9232,4.9366,4.9466,4.9574,4.9681,4.9744,4.982,4.9917,5.0061,5.0151,5.0328,5.0468,5.0607,5.0676,5.0686,5.0691,5.0721,5.0711,5.0684,5.0702,5.042,5.0684,5.0683,5.0681,5.068,5.068,4.9224,4.9322,4.9437,4.9571,4.9657,4.9756,4.9857,4.9928,5.0049,5.0199,5.0226,5.0379,5.0491,5.0679,5.0752,5.0872,5.0851,5.0894,5.0905,5.0915,5.0921,5.0663,5.0897,5.0897,5.0897,5.0896,5.0896,0,4.9438,4.9512,4.9635,4.9784,4.9889,4.9888,5.0006,5.0095,5.0229,5.0333,5.0447,5.0612,5.0748,5.0841,5.0979,5.1058,5.1065,5.1092,5.1088,5.1104,5.0931,5.0893,5.1083,5.1083,5.1083,5.1083,5.1083,5.1083,4.9561,4.9728,4.977,4.9979,5.0053,5.0203,5.0271,5.0362,5.0445,5.0629,5.0743,5.0802,5.0902,5.1047,5.1172,5.1196,5.1246,5.1274,5.1297,5.1135,5.1116,5.1097,5.1061,5.1284,5.1284,5.146,5.1462,5.1463]}]]